Flag Weather past 2 weeks in Cluj-Napoca, Romania

Now
39 °F

Passing clouds.


Feels Like: 36 °F
Forecast: 27 / 40 °F
Wind: 5 mph from Southeast

Location: Cluj Airport-Napoca

Current Time: Nov 24, 2014 at 4:07:45 PM

Latest Report: Nov 24, 2014 at 3:30 PM


Visibility: N/A

Pressure: 30.36 "Hg

Humidity: 81%

Dew point: 34 °F

Location of Cluj-NapocaLocation

Historic Weather in Cluj-Napoca — Graph

°F

Cluj-Napoca temperature yesterday

Maximum temperature yesterday: 43 °F (at 12:00 PM)
Minimum temperature yesterday: 39 °F (at 12:00 AM)
Average temperature yesterday: 41 °F

Past Weeks' High & Low Weather Summary

 TemperatureHumidityPressure
High77 °F (Nov 12, 3:00 AM)100% (Nov 10, 4:00 AM)30.39 "Hg (Nov 10, 4:00 AM)
Low34 °F (Nov 10, 7:00 AM)42% (Nov 16, 2:00 PM)29.86 "Hg (Nov 16, 2:30 PM)
Average45 °F82%30.08 "Hg
* Reported Nov 9 3:00 PM — Nov 24 3:00 PM, Cluj-Napoca, Weather by CustomWeather, © 2014

Note: Actual official high and low records may vary slightly from our data, if they occured in-between our weather recording intervals... More about our weather records

Advertising

Cluj-Napoca weather history for previous 24 hours

 ConditionsComfort  
Time TempWeatherWind HumidityBarometerVisibility
3:00 PM
Nov 24
39 °FPassing clouds.7 mph81%30.36 "HgN/A
2:30 PM39 °FScattered clouds.5 mph81%30.36 "HgN/A
2:00 PM39 °FScattered clouds.7 mph81%30.36 "HgN/A
1:30 PM39 °FPassing clouds.7 mph75%30.36 "HgN/A
1:00 PM39 °FScattered clouds.5 mph81%30.36 "HgN/A
12:30 PM39 °FPassing clouds.7 mph75%30.36 "HgN/A
12:00 PM39 °FScattered clouds.5 mph81%30.39 "HgN/A
11:30 AM37 °FPartly sunny.5 mph87%30.39 "Hg5 mi
11:00 AM37 °FPartly sunny.7 mph87%30.39 "Hg4 mi
10:30 AM37 °FPartly sunny.5 mph87%30.39 "Hg4 mi
10:00 AM36 °FFog.5 mph93%30.39 "Hg3 mi
9:30 AM36 °FFog.5 mph93%30.39 "Hg3 mi
9:00 AM36 °FFog.5 mph93%30.39 "Hg3 mi
8:30 AM37 °FOvercast.2 mph81%30.36 "HgN/A
8:00 AM37 °FOvercast.5 mph81%30.36 "HgN/A
7:30 AM37 °FMostly cloudy.5 mph81%30.36 "Hg5 mi
7:00 AM36 °FPassing clouds.No wind87%30.36 "Hg5 mi
6:30 AM36 °FPassing clouds.2 mph93%30.36 "Hg4 mi
6:00 AM36 °FPartly cloudy.5 mph93%30.36 "HgN/A
5:30 AM36 °FPartly cloudy.5 mph87%30.36 "HgN/A
5:00 AM34 °FPassing clouds.5 mph93%30.36 "HgN/A
4:00 AM36 °FPassing clouds.No wind93%30.36 "HgN/A
3:00 AM37 °FPassing clouds.No wind87%30.36 "HgN/A
2:00 AM37 °FPassing clouds.No wind87%30.36 "HgN/A
1:00 AM39 °FPassing clouds.5 mph81%30.36 "HgN/A
12:00 AM39 °FPartly cloudy.2 mph81%30.39 "HgN/A
11:30 PM
Nov 23
39 °FPassing clouds.5 mph81%30.39 "HgN/A
11:00 PM39 °FPartly cloudy.No wind81%30.39 "HgN/A
10:30 PM39 °FPassing clouds.No wind81%30.39 "HgN/A
10:00 PM39 °FPassing clouds.No wind81%30.39 "HgN/A
9:30 PM39 °FPassing clouds.No wind81%30.39 "HgN/A
9:00 PM41 °FPassing clouds.No wind70%30.39 "HgN/A
8:30 PM41 °FOvercast.No wind76%30.39 "HgN/A
8:00 PM39 °FOvercast.2 mph81%30.39 "HgN/A
7:30 PM41 °FOvercast.2 mph76%30.39 "HgN/A
7:00 PM41 °FPassing clouds.No wind76%30.39 "HgN/A
6:30 PM41 °FPassing clouds.2 mph70%30.39 "HgN/A
6:00 PM41 °FPassing clouds.2 mph66%30.39 "HgN/A
5:30 PM41 °FPassing clouds.5 mph70%30.39 "HgN/A
5:00 PM41 °FPassing clouds.5 mph76%30.39 "HgN/A
4:30 PM41 °FPartly sunny.5 mph76%30.39 "HgN/A
4:00 PM43 °FPartly sunny.5 mph71%30.39 "HgN/A
Weather by CustomWeather, © 2014

See weather overviewHow to use our weather pages